Regional Weather Roundup
Issued by NWS

Home | Current Version | Previous Version | Graphics & Text | Print | Product List | Glossary On
Versions: 1 2 3 4 5 6 7 8 9 10 11 12 13 14 15 16 17 18 19 20 21 22 23 24 25 26 27 28 29 30 31 32 33 34 35 36 37 38 39 40 41 42 43 44 45 46 47 48 49 50
000
ASUS43 KTOP 290908
RWRKS

WEATHER ROUNDUP FOR KANSAS
NATIONAL WEATHER SERVICE GOODLAND KS
400 AM CDT TUE JUL 29 2014

NOTE:  "FAIR" INDICATES FEW OR NO CLOUDS BELOW 12,000 FEET WITH NO
SIGNIFICANT WEATHER AND/OR OBSTRUCTIONS TO VISIBILITY.

KSZ001>006-013>018-027>032-041>047-291000-
NORTHWEST KANSAS

CITY           SKY/WX    TMP DP  RH WIND       PRES   REMARKS
GOODLAND       MOCLDY    63  59  87 S8        30.23F
HAYS           PTCLDY    64  54  68 E9        30.20F
HILL CITY      PTCLDY    63  56  78 E7        30.20F
RUSSELL        CLEAR     61  55  81 E8        30.19F
$$

KSZ061>065-074>080-084>089-291000-
SOUTHWEST KANSAS

CITY           SKY/WX    TMP DP  RH WIND       PRES   REMARKS
DODGE CITY     PTCLDY    63  56  78 S6        30.21F
ELKHART          N/A     64  60  87 SE14        N/A
GARDEN CITY    PTCLDY    62  58  86 S5        30.21F
GREAT BEND     PTCLDY    66  55  68 E7        30.18F
LIBERAL        CLOUDY    66  55  68 S6        30.24S
PRATT          PTCLDY    66  57  72 CALM      30.19F
$$

KSZ066>073-081>083-090>101-291000-
SOUTHEAST KANSAS

CITY           SKY/WX    TMP DP  RH WIND       PRES   REMARKS
CHANUTE        PTCLDY    61  58  90 CALM      30.17S
COFFEYVILLE    PTCLDY    63  60  90 N5        30.15S
HUTCHINSON     PTCLDY    63  55  75 E6        30.19S
MEDICINE LODGE   N/A     64  59  83 CALM      30.16F
NEWTON         PTCLDY    63  52  67 E3        30.22F
PARSONS        PTCLDY    62  58  86 CALM      30.17S
WICHITA INTL   CLEAR     68  57  68 E6        30.18S
WICHITA JABRA  PTCLDY    63  57  81 E5        30.18S
WICHITA MCCONL PTCLDY    67  58  72 E6        30.18S
WINFIELD       PTCLDY    67  58  72 E3        30.18S
$$

KSZ007>012-019>026-033>040-048>060-102>105-291000-
NORTHEAST KANSAS

CITY           SKY/WX    TMP DP  RH WIND       PRES   REMARKS
CONCORDIA      CLOUDY    64  58  80 CALM      30.20F
EMPORIA        PTCLDY    62  58  86 CALM      30.18S
LAWRENCE       CLEAR     56  54  93 NW5       30.17S
MANHATTAN      CLOUDY    65  57  75 W5        30.19S
MARYSVILLE     LGT RAIN  59  55  88 CALM      30.19S
OLATHE IND     CLEAR     61  58  90 CALM      30.17F
OLATHE EXE     CLEAR     63  58  83 CALM      30.16S
SALINA         MOCLDY    68  56  65 SE3       30.19F
TOPEKA BILLARD PTCLDY    60  57  89 SW3       30.18S
TOPEKA FORBES  CLOUDY    61  55  81 CALM      30.17F
$$



USA.gov is the U.S. government's official web portal to all federal, state and local government web resources and services.